This is the latest recevied weather packets stored in our database for station/object KQ4WWD. If no packets are shown the sender has not sent any weather packets the latest 10 day(s).
| Time | Temp. | Humidity | Pressure | Rain* | Wind** | Luminosity | Snow |
|---|---|---|---|---|---|---|---|
| 1777041290 | 25.56° C | 63% | 1015.1 hPa | 0 mm | - | 694 W/m² | - |
| 1777040988 | 25.56° C | 66% | 1015.3 hPa | 0 mm | - | 653 W/m² | - |
| 1777040683 | 25° C | 67% | 1015 hPa | 0 mm | - | 653 W/m² | - |
| 1777040377 | 24.44° C | 67% | 1014.8 hPa | 0 mm | - | 587 W/m² | - |
| 1777040073 | 24.44° C | 67% | 1014.9 hPa | 0 mm | - | 557 W/m² | - |
| 1777039770 | 24.44° C | 67% | 1015.2 hPa | 0 mm | - | 551 W/m² | - |
| 1777039464 | 24.44° C | 68% | 1015 hPa | 0 mm | - | 527 W/m² | - |
| 1777039160 | 25° C | 69% | 1015.1 hPa | 0 mm | - | 501 W/m² | - |
| 1777038858 | 23.89° C | 70% | 1015.2 hPa | 0 mm | - | 536 W/m² | - |
| 1777038555 | 23.89° C | 69% | 1015.1 hPa | 0 mm | - | 493 W/m² | - |
| 1777038255 | 23.89° C | 70% | 1015.1 hPa | 0 mm | - | 492 W/m² | - |
| 1777037951 | 23.89° C | 71% | 1015.1 hPa | 0 mm | - | 462 W/m² | - |
| 1777037647 | 23.89° C | 70% | 1015 hPa | 0 mm | - | 406 W/m² | - |
| 1777037343 | 23.33° C | 71% | 1014.9 hPa | 0 mm | - | 366 W/m² | - |
| 1777037040 | 23.33° C | 74% | 1015.2 hPa | 0 mm | - | 343 W/m² | - |
| 1777036738 | 23.33° C | 74% | 1015 hPa | 0 mm | - | 307 W/m² | - |
| 1777036437 | 22.78° C | 74% | 1014.7 hPa | 0 mm | - | 77 W/m² | - |
| 1777036133 | 22.78° C | 76% | 1014.9 hPa | 0 mm | - | 68 W/m² | - |
| 1777035829 | 22.22° C | 77% | 1015.1 hPa | 0 mm | - | 277 W/m² | - |
| 1777035526 | 22.22° C | 77% | 1015 hPa | 0 mm | - | 63 W/m² | - |
| 1777035224 | 22.22° C | 79% | 1014.7 hPa | 0 mm | - | 249 W/m² | - |
| 1777034921 | 21.11° C | 82% | 1014.9 hPa | 0 mm | - | 225 W/m² | - |
| 1777034619 | 21.11° C | 82% | 1015 hPa | 0 mm | - | 206 W/m² | - |
| 1777034316 | 20.56° C | 83% | 1014.8 hPa | 0 mm | - | 187 W/m² | - |
| 1777034012 | 20.56° C | 84% | 1014.9 hPa | 0 mm | - | 171 W/m² | - |
* Rain latest hour (hover to see other rain measurements)
** Current wind speed in m/s (hover to see current wind gust speed)